Погода в Шарлевиль-Мезьере

Франция     49°45′23″N   4°42′28″E
темп.,
°C
ветер,
м/с
пор.,
м/с
влажн.,
%
обл.,
%
осадки,
мм/ч
давл.,
гПа
погр.,
м
17 апреля, сб
сб1723:00+2с338869 0.0 102645
02:00+1с348774 0.0 102677
05:00+3с3887100 0.0 1025198
08:00+3с4108193 0.0 1025300
11:00+8ссв575861 0.0 1025929
14:00+11ссв67465 0.0 10231699
17:00+11ссв674968 0.0 10221748
20:00+8ссв3664100 0.0 1022233
18 апреля, вс
вс1823:00+7с266983 0.0 1023157
02:00+5с2579100 0.0 1023129
05:00+5с2783100 0.0 1022228
08:00+5с3980100 0.0 1022350
11:00+9ссв4666100 0.0 1022661
14:00+13с345395 0.0 10211808
17:00+12с456076 0.1 10201369
20:00+9с357265 0.3 1021147
19 апреля, пн
пн1923:00+5с228594 0.0 102220
02:00+4с239144 0.0 102136
05:00+6с2685100 0.0 1020178
08:00+7с2487100 0.0 1020153
11:00+8ссв2484100 0.0 1020333
14:00+12ссв337143 0.8 1019948
17:00+12ссв237698 1.6 1018429
20:00+9ссв358799 2.8 1018132
20 апреля, вт
вт2023:00+6ссв22935 0.0 101913
02:00+5ссв22945 0.0 101816
05:00+4ссв22955 0.0 101821
08:00+6ссв24946 0.0 1018119
11:00+12ссв337523 0.0 1018756
14:00+14с336391 1.3 10161453
17:00+13с456977 1.0 1016974
20:00+11с357286 1.1 1017123
21 апреля, ср
ср2123:00+9с497258 0.0 1018342
02:00+6с239060 0.0 101962
05:00+6с238756 0.0 101985
08:00+6с238744 0.0 102096
11:00+12с225899 0.0 1020778
14:00+15сз224891 0.0 10191796
17:00+15с3351100 0.0 10191909
20:00+10ссв6108013 0.1 1021539